742  
ASUS44 KHUN 221110  
RWRHUN  
 
WEATHER ROUNDUP FOR THE TENNESSEE VALLEY  
NATIONAL WEATHER SERVICE HUNTSVILLE AL  
600 AM CDT SUN OCT 22 2017  
 
ALZ001>004-221200-  
NORTHWEST ALABAMA  
 
CITY SKY/WX TMP DP RH WIND PRES REMARKS
 
COURTLAND HCN N/A 63 N/A N/A SE5 N/A  
RUSSELLVILLE N/A 64 N/A N/A MISG N/A  
SHOALS AIRPORT CLOUDY 63 57 81 SE5 30.15R  
SHOALS TVA RES N/A 63 N/A N/A MISG N/A  

 
 
ALZ005>007-016-221200-  
NORTH CENTRAL ALABAMA  
 
CITY SKY/WX TMP DP RH WIND PRES REMARKS
 
CULLMAN AG STN N/A 61 N/A N/A SE5 N/A  
DECATUR AP CLOUDY 64 58 80 SE10 30.16R  
HUNTSVILLE AP MOCLDY 63 58 83 SE10 30.16R  
MERIDIANVILLE PTCLDY 64 55 72 SE8 30.17R  
REDSTONE ARSN CLOUDY 64 58 81 S9 30.16R  
VINEMONT AP FAIR 60 55 84 SE6 30.19R  

 
 
ALZ008>010-221200-  
NORTHEAST ALABAMA  
 
CITY SKY/WX TMP DP RH WIND PRES REMARKS
 
ALBERTVILLE CLOUDY 59 59 100 E5 30.19R  
FORT PAYNE CLOUDY 63 54 72 CALM 30.21S  
SCOTTSBORO AP PTCLDY 64 61 88 VRB7G14 30.21R  
SCOTTSBORO HCN N/A 63 N/A N/A MISG N/A  
VALLEY HEAD N/A 61 N/A N/A MISG N/A  

 
 
TNZ076-096-097-221200-  
SOUTHEASTERN MIDDLE TENNESSEE  
 
CITY SKY/WX TMP DP RH WIND PRES REMARKS
 
TULLAHOMA CLEAR 63 54 72 SE9 30.19R  
WINCHESTER CLEAR 63 55 77 S10 N/A  

 
   
..SURROUNDING SITES
 
 
 
CITY SKY/WX TMP DP RH WIND PRES REMARKS
 
ATLANTA PTCLDY 58 56 93 E9 30.25R  
ANNISTON CLOUDY 59 56 89 NE6 30.21R  
BIRMINGHAM PTCLDY 65 60 84 E6 30.18R  
CHATTANOOGA PTCLDY 54 52 93 CALM 30.24R  
CORINTH FAIR 68 59 73 SE8 30.08R  
DALTON CLOUDY 50 50 100 CALM 30.26R  
GADSDEN PTCLDY 57 56 96 E7 30.21R  
GOLDEN TRNGL MOCLDY 67 62 84 SE12 30.10R  
HALEYVILLE MOCLDY 63 60 90 SE6 30.17R  
JACKSON TN MOCLDY 69 62 78 S10G18 30.04F  
MEMPHIS MOCLDY 70 64 81 S8 30.01S  
NASHVILLE CLOUDY 65 52 62 SE10 30.14R  
ROME CLOUDY 52 52 100 CALM 30.24R  
SAVANNAH MOCLDY 66 59 77 S9 30.08R  
SELMER CLEAR 68 61 77 SE12 30.07S  
TUPELO MOCLDY 67 60 78 E9 30.07S  
TUSCALOOSA PTCLDY 66 62 87 VRB5 30.12R  

 
   
..GULF COAST WEATHER
 
 
 
CITY SKY/WX TMP DP RH WIND PRES REMARKS
 
GULFPORT LGT RAIN 73 70 90 NE6 30.04R  
PASCAGOULA CLOUDY 71 68 90 CALM 30.06R  
MOBILE CLOUDY 70 67 90 NE6 30.09R  
GULF SHORES CLOUDY 77 73 86 E12G20 30.06R  
PENSACOLA CLOUDY 77 71 82 E14 30.07S  
DESTIN CLEAR 72 64 76 E7 30.10S  
PANAMA CITY CLEAR 69 66 91 E7 30.11R  
APPALACHICOLA PTCLDY 75 74 96 E7 30.10S  

 
 
 
 
CLICK HERE TO GO TO PREVIOUS BULLETINS.

The Nexlab AL Page
The Nexlab TN Page Main Text Page